Simultaneous Nadir Overpasses (SNOs) Predictions

Prediction of SNOs between GOES-15 and TERRA Satellite Orbit:

Table of predicted SNOs for the next 14.0 days since TLE Epoch: 4/2/2022
Index Date Time (GOES-15) GOES-15 Lat,Lon TERRA Lat,Lon Distance(km) Time Diff (sec)
1 04/03/2022 18:53:54 -0.08,-128.42 -0.22,-127.86 63.58 80
2 04/05/2022 18:41:41 -0.08,-128.42 -0.85,-124.91 400.26 80
3 04/06/2022 07:00:23 0.09,-128.40 -0.29,-130.09 193.72 80
4 04/08/2022 06:50:49 0.10,-128.40 0.33,-127.14 142.13 80
5 04/08/2022 19:09:25 -0.11,-128.43 0.70,-132.31 441.54 80
6 04/10/2022 06:38:36 0.10,-128.40 1.01,-124.20 477.39 80
7 04/10/2022 18:57:11 -0.11,-128.42 0.08,-129.36 106.33 80
8 04/12/2022 18:47:37 -0.11,-128.42 -0.53,-126.41 228.56 80
9 04/13/2022 07:06:21 0.12,-128.39 -0.55,-131.60 365.58 80
10 04/15/2022 06:54:07 0.12,-128.38 0.05,-128.65 31.10 80
